Location: Narrabri
(30.3170°S, 149.7830°E)
Time: 22:21:06
(UTC+11:00)

Vanguard 2 Rocket - All Passes

Search period start: 13 December 2017 00:00
Search period end: 23 December 2017 00:00
Orbit: 555 x 3326 km, 32.9° (Epoch: 13 December)

Date Brightness Start Highest point End Pass type
(mag) Time Alt. Az. Time Alt. Az. Time Alt. Az.
13 Dec - 05:18:20 10° NNW 05:27:17 21° NNE 05:33:34 10° ENE visible
13 Dec - 07:32:29 10° NW 07:42:06 52° NNE 07:47:43 10° E daylight
13 Dec - 09:49:02 10° W 09:55:35 74° S 09:59:54 10° ESE daylight
13 Dec - 12:04:15 10° WSW 12:08:39 74° S 12:12:38 10° E daylight
13 Dec - 14:17:42 10° W 14:21:17 31° NNW 14:25:41 10° NE daylight
14 Dec - 04:18:53 10° N 04:26:47 16° NNE 04:32:53 10° ENE visible
14 Dec - 06:31:24 10° NW 06:42:20 42° NNE 06:48:48 10° E daylight
14 Dec - 08:48:02 10° WNW 08:56:19 90° SSE 09:01:14 10° ESE daylight
14 Dec - 11:04:24 10° W 11:09:35 64° S 11:13:33 10° E daylight
14 Dec - 13:18:26 10° W 13:22:19 48° NNW 13:26:30 10° NE daylight
14 Dec - 15:34:21 10° NW 15:35:14 10° NNW 15:36:08 10° NNW daylight
15 Dec - 03:21:17 10° NNE 03:25:56 12° NNE 03:30:02 10° NE visible
15 Dec - 05:30:24 10° NNW 05:42:13 34° NNE 05:49:35 10° E visible
15 Dec - 07:46:40 10° WNW 07:56:50 74° NNE 08:02:34 10° ESE daylight
15 Dec - 10:03:56 10° W 10:10:24 66° S 10:14:42 10° E daylight
15 Dec - 12:19:00 10° WSW 12:23:24 76° NNW 12:27:23 10° ENE daylight
15 Dec - 14:33:23 10° WNW 14:35:57 16° NNW 14:38:52 10° NNE daylight
16 Dec - 04:29:45 10° NNW 04:41:45 27° NNE 04:49:50 10° E visible
16 Dec - 06:45:05 10° NW 06:57:07 60° NNE 07:03:49 10° E daylight
16 Dec - 09:02:52 10° W 09:11:05 74° S 09:15:59 10° ESE daylight
16 Dec - 11:19:11 10° WSW 11:24:24 79° S 11:28:24 10° E daylight
16 Dec - 13:33:33 10° W 13:36:55 26° NNW 13:40:28 10° NNE daylight
17 Dec - 03:29:45 10° N 03:40:58 21° NNE 03:49:17 10° ENE visible
17 Dec - 05:43:29 10° NW 05:57:02 49° NNE 06:04:50 10° E daylight
17 Dec - 08:01:17 10° WNW 08:11:34 87° SSW 08:17:20 10° ESE daylight
17 Dec - 10:18:48 10° W 10:25:15 69° S 10:29:33 10° E daylight
17 Dec - 12:33:51 10° W 12:38:02 43° NNW 12:41:50 10° NE daylight
18 Dec - 02:31:00 10° N 02:39:52 16° NNE 02:47:14 10° ENE visible
18 Dec - 04:42:06 10° NW 04:56:35 40° NNE 05:05:31 10° E visible
18 Dec - 06:59:20 10° WNW 07:11:49 79° NNE 07:18:37 10° ESE daylight
18 Dec - 09:17:46 10° W 09:25:54 69° S 09:30:48 10° E daylight
18 Dec - 11:33:57 10° WSW 11:39:08 72° NNW 11:43:06 10° ENE daylight
18 Dec - 13:49:41 10° WNW 13:51:26 12° NNW 13:53:14 10° N daylight
19 Dec - 03:41:09 10° NNW 03:55:48 33° NNE 04:05:41 10° E visible
19 Dec - 05:57:16 10° WNW 06:11:45 67° NNE 06:19:46 10° ESE daylight
19 Dec - 08:16:08 10° W 08:26:22 76° S 08:32:06 10° ESE daylight
19 Dec - 10:33:36 10° WSW 10:40:04 84° SSE 10:44:22 10° ENE daylight
19 Dec - 12:49:03 10° W 12:52:31 23° NNW 12:55:43 10° NNE daylight
20 Dec - 02:40:55 10° NNW 02:54:43 26° NNE 03:05:04 10° E visible
20 Dec - 04:55:19 10° NW 05:11:18 56° NNE 05:20:39 10° E visible
20 Dec - 07:13:59 10° WNW 07:26:34 86° SSW 07:33:22 10° ESE daylight
20 Dec - 09:32:39 10° W 09:40:46 74° S 09:45:38 10° E daylight
20 Dec - 11:48:49 10° W 11:53:42 42° NNW 11:57:29 10° NE daylight
21 Dec - 01:41:52 10° N 01:53:25 19° NE 02:03:05 10° ENE visible
21 Dec - 03:53:43 10° NW 04:10:30 46° NNE 04:21:09 10° E visible
21 Dec - 06:11:34 10° WNW 06:26:27 83° NNE 06:34:32 10° ESE daylight
21 Dec - 08:31:03 10° W 08:41:12 73° S 08:46:54 10° E daylight
21 Dec - 10:48:22 10° WSW 10:54:46 69° NNW 10:59:01 10° ENE daylight
21 Dec - 13:05:38 10° NW 13:06:51 11° NW 13:08:00 10° NNW daylight
22 Dec - 00:45:32 10° NNE 00:51:59 12° NE 00:58:00 10° ENE visible
22 Dec - 02:52:42 10° NNW 03:09:23 37° NNE 03:21:08 10° E visible
22 Dec - 05:09:10 10° WNW 05:25:58 72° NNE 05:35:30 10° ESE visible
22 Dec - 07:28:51 10° W 07:41:22 77° S 07:48:09 10° E daylight
22 Dec - 09:47:27 10° WSW 09:55:34 88° S 10:00:26 10° ENE daylight
22 Dec - 12:04:02 10° W 12:08:03 23° NW 12:11:19 10° NNE daylight
